Flag for Greece Weather past 2 weeks in Patras, Greece

Now
52 °F

Light rain. Passing clouds.


Feels Like: 52 °F
Forecast: 44 / 60 °F
Wind: No wind

Location: Araxos Airport

Current Time: Mar 1, 2015 at 5:53:54 AM

Latest Report: Mar 1, 2015 at 2:50 AM


Visibility: N/A

Pressure: 30.04 "Hg

Humidity: 100%

Dew point: 52 °F

Location of PatrasLocation

Historic Weather in Patras — Graph

°F

Patras temperature yesterday

Maximum temperature yesterday: 59 °F (at 1:20 PM)
Minimum temperature yesterday: 48 °F (at 12:50 AM)
Average temperature yesterday: 53 °F

Past Weeks' High & Low Weather Summary

 TemperatureHumidityPressure
High63 °F (Feb 24, 2:20 PM)100% (Feb 15, 5:20 AM)30.45 "Hg (Feb 15, 5:20 AM)
Low30 °F (Feb 20, 1:50 AM)24% (Feb 19, 3:20 PM)29.62 "Hg (Feb 25, 4:50 AM)
Average50 °F74%30.00 "Hg
* Reported Feb 14 2:50 AM — Mar 1 2:50 AM, Patras, Weather by CustomWeather, © 2015

Note: Actual official high and low records may vary slightly from our data, if they occured in-between our weather recording intervals... More about our weather records

Advertising

Patras weather history for previous 24 hours

 ConditionsComfort  
Time TempWeatherWind HumidityBarometerVisibility
2:50 AM
Sun, Mar 1
52 °FLight rain. Passing clouds.No wind100%30.04 "HgN/A
12:50 AM48 °FPartly cloudy.No wind100%30.04 "HgN/A
11:50 PM
Sat, Feb 28
52 °FPassing clouds.3 mph94%30.04 "HgN/A
10:50 PM54 °FPassing clouds.5 mph88%30.04 "HgN/A
9:50 PM54 °FPassing clouds.6 mph94%30.01 "HgN/A
8:50 PM54 °FPassing clouds.3 mph94%30.01 "HgN/A
7:50 PM54 °FPassing clouds.No wind100%30.01 "HgN/A
7:20 PM55 °FPassing clouds.No wind94%29.98 "HgN/A
6:50 PM55 °FPassing clouds.No wind88%29.98 "HgN/A
6:20 PM55 °FBroken clouds.3 mph94%29.98 "HgN/A
5:50 PM55 °FBroken clouds.3 mph94%29.98 "HgN/A
5:20 PM55 °FBroken clouds.3 mph94%29.95 "HgN/A
4:50 PM55 °FLight rain. Partly sunny.No wind94%29.95 "HgN/A
4:20 PM55 °FLight rain. Partly sunny.No wind94%29.95 "HgN/A
3:50 PM55 °FBroken clouds.3 mph88%29.95 "HgN/A
3:20 PM57 °FBroken clouds.6 mph82%29.95 "HgN/A
2:50 PM59 °FBroken clouds.5 mph77%29.95 "HgN/A
2:20 PM59 °FBroken clouds.5 mph77%29.95 "HgN/A
1:50 PM59 °FBroken clouds.5 mph82%29.95 "HgN/A
1:20 PM59 °FBroken clouds.3 mph77%29.95 "HgN/A
12:50 PM57 °FBroken clouds.No wind88%29.95 "HgN/A
12:20 PM57 °FPartly sunny.3 mph88%29.95 "HgN/A
11:50 AM57 °FBroken clouds.3 mph88%29.95 "HgN/A
11:20 AM57 °FBroken clouds.3 mph88%29.95 "HgN/A
10:50 AM55 °FBroken clouds.5 mph94%29.92 "HgN/A
10:20 AM55 °FPartly sunny.5 mph94%29.92 "HgN/A
9:50 AM54 °FPartly sunny.5 mph100%29.92 "HgN/A
9:20 AM52 °FPartly sunny.No wind100%29.89 "HgN/A
8:50 AM50 °FPartly sunny.No wind100%29.89 "HgN/A
8:20 AM50 °FMostly cloudy.No wind100%29.89 "HgN/A
7:50 AM50 °FMostly cloudy.No wind100%29.86 "HgN/A
7:20 AM48 °FMostly cloudy.No wind100%29.86 "HgN/A
6:50 AM48 °FLight rain. Mostly cloudy.No wind100%29.83 "Hg5 mi
6:20 AM48 °FLight rain. Mostly cloudy.No wind100%29.83 "Hg5 mi
5:50 AM48 °FLight rain. Mostly cloudy.No wind100%29.83 "Hg5 mi
5:20 AM48 °FLight rain. Mostly cloudy.No wind100%29.83 "Hg4 mi
Weather by CustomWeather, © 2015

See weather overviewHow to use our weather pages